Temp
20 19 19 21 22 23 23 21 21 23 25 25 24 24 25 26 26 26 25 23 23 22 20 18 18 20 20 20 20 20 20 19 19 19 19 18 18 18 18 17 17 16 16 15
20 20 22 23 23 22 22 21 22 24 25 24 24 24 25 25 26 25 25 25 22 19 17 17 17 18 18 19 20 20 20 19 19 19 19 18 18 17 17 17 16 16 16 15
21 23 24 23 23 22 22 21 22 23 24 25 23 24 24 26 26 25 24 24 22 20 17 17 17 17 18 19 20 20 19 19 19 19 18 18 18 17 16 16 16 16 15 15
21 24 23 23 22 23 21 23 24 24 22 21 23 20 23 24 25 26 26 24 22 18 17 18 17 15 17 19 20 20 19 19 19 19 18 18 16 15 15 16 16 16 16 16
20 22 23 23 23 24 23 24 23 23 22 22 23 21 22 23 25 24 25 25 20 17 18 17 16 17 19 19 19 19 19 19 19 19 18 18 17 17 16 16 16 15 15 15
22 24 24 24 25 24 24 24 22 22 21 20 23 21 22 23 25 26 27 23 18 17 16 15 17 18 18 19 19 19 19 19 19 19 18 18 17 17 16 16 15 15 15 15
21 22 23 24 23 23 23 19 18 18 18 19 23 21 24 24 24 25 26 21 18 17 16 17 17 15 16 18 19 19 19 19 18 18 18 18 18 17 16 16 15 15 15 15
20 20 22 24 23 22 22 22 18 18 18 21 22 22 24 25 26 25 24 20 18 16 17 17 17 16 16 18 18 19 19 19 18 19 18 18 18 17 16 16 15 15 15 15
20 21 24 25 25 24 22 21 23 21 22 21 21 23 25 27 25 23 20 19 18 17 17 17 16 16 17 18 19 19 19 19 19 19 18 18 18 17 17 16 16 16 16 15
21 20 23 24 25 24 22 23 22 19 20 21 21 23 24 27 25 22 20 18 18 16 16 17 16 16 17 19 20 19 19 20 19 19 19 18 18 17 17 17 16 16 16 16
20 20 22 23 22 23 21 22 21 21 20 19 20 21 21 25 23 22 20 19 18 17 17 17 16 17 18 19 19 19 19 19 19 19 19 18 18 17 17 17 16 16 16 17
14 17 19 21 24 25 24 22 22 22 20 21 20 22 25 23 22 23 21 19 17 17 18 17 16 16 16 18 18 19 19 19 19 19 19 18 18 17 17 17 16 16 16 16
13 15 18 19 22 23 23 23 24 21 19 20 23 24 24 22 22 23 20 19 18 17 16 16 15 16 16 17 18 18 19 19 19 19 19 18 18 17 17 17 16 16 16 16
13 12 17 20 22 23 22 24 22 23 23 23 23 25 25 23 22 22 21 19 18 18 18 17 16 16 17 17 18 19 19 19 19 19 18 18 18 17 17 17 16 16 17 17
11 11 14 18 22 23 24 24 24 23 24 23 25 24 24 22 21 22 21 18 18 18 18 18 17 16 16 17 18 19 19 19 19 19 19 19 18 18 17 17 16 16 16 16
11 11 13 17 21 23 23 24 25 25 25 25 23 24 24 23 23 21 21 20 20 20 20 20 19 17 16 17 18 19 19 19 19 19 19 19 18 18 18 17 17 16 16 16
12 11 13 14 21 22 21 23 23 25 25 26 24 24 22 23 24 22 21 22 22 21 21 20 19 18 18 18 19 19 19 20 19 19 19 19 19 18 18 17 17 17 17 16
12 11 12 12 17 18 23 24 25 23 25 24 25 24 24 24 25 24 23 22 22 22 21 21 20 19 19 19 19 20 20 19 19 19 19 19 19 18 18 18 18 17 17 16
12 11 11 11 15 20 23 24 24 22 23 24 25 24 24 24 22 24 23 23 23 23 22 22 21 20 19 19 19 20 18 18 18 18 19 19 19 18 18 18 18 17 17 16
14 12 12 13 14 18 21 20 25 24 24 23 23 22 23 23 25 22 21 23 23 23 22 22 22 20 19 19 19 18 17 17 17 18 19 19 19 19 18 18 18 18 17 17
11 11 11 13 13 17 15 16 19 24 22 16 21 23 21 25 27 25 23 24 24 23 21 22 21 20 20 19 19 18 17 17 19 19 19 19 19 19 19 18 18 18 17 17
10 12 12 13 14 18 16 16 17 14 15 16 17 21 22 25 24 22 23 23 23 22 21 22 21 20 20 20 19 18 17 19 19 19 19 19 19 19 18 18 18 18 18 17
11 10 11 12 14 14 14 14 14 14 14 16 16 16 19 23 22 21 22 23 23 23 23 22 21 20 19 19 20 19 19 19 19 19 19 19 19 19 19 18 17 17 17 17
10 11 11 11 15 14 13 14 14 14 14 15 17 16 17 22 22 22 23 23 23 23 22 22 21 20 19 19 20 21 19 20 20 19 19 19 19 18 19 18 18 17 17 17
9 10 10 11 13 13 14 14 14 14 15 15 17 17 17 20 22 23 23 24 24 23 23 22 21 20 20 20 20 20 20 20 19 19 19 18 18 19 18 18 18 18 18 18
10 10 11 11 13 11 12 13 14 14 14 15 15 17 17 18 22 22 23 24 24 23 23 22 22 21 21 20 20 20 21 20 19 18 18 18 17 17 17 17 17 17 18 18
Height
737 751 740 738 738 739 748 758 755 739 731 736 737 732 717 705 706 703 697 696 689 691 690 692 697 702 712 720 725 728 732 734 737 737 737 736 735 733 733 733 733 733 732 732
737 720 717 724 732 740 749 755 749 733 730 735 732 730 713 703 699 695 692 688 690 693 695 694 698 705 710 718 724 726 730 734 735 735 735 735 733 731 731 730 731 731 730 730
712 691 711 721 728 740 741 748 747 742 734 729 732 729 716 694 692 686 684 680 682 683 691 695 700 703 713 718 721 725 730 732 733 734 734 734 732 730 730 730 730 729 727 728
710 699 705 715 720 726 741 728 730 736 747 762 728 759 721 708 700 691 683 679 679 683 689 694 700 708 712 715 720 726 729 731 733 733 733 732 731 730 731 730 728 728 727 727
698 696 706 710 705 713 721 719 729 733 743 743 736 754 725 710 707 696 684 674 680 683 688 695 700 708 712 716 721 725 729 731 732 733 733 732 731 730 731 730 728 727 727 727
687 678 686 682 694 701 709 722 731 735 745 754 730 748 729 714 700 685 673 676 683 685 691 698 703 709 713 717 722 725 728 730 732 733 732 731 731 731 731 729 727 727 726 727
692 689 680 681 701 704 715 742 771 772 768 753 719 738 709 692 684 678 674 679 684 689 692 696 703 707 712 717 721 725 728 730 731 732 732 731 731 731 730 729 727 727 726 727
697 705 681 672 686 702 711 720 754 765 761 739 716 727 698 672 666 667 667 675 682 689 692 696 701 707 711 716 721 724 727 729 730 731 731 731 731 731 730 729 727 727 726 727
693 689 662 667 671 682 705 714 710 730 723 734 722 699 677 666 670 671 674 676 684 686 689 695 701 705 710 715 719 722 726 728 729 730 731 732 732 732 730 729 728 728 727 728
675 692 664 658 664 667 685 693 724 734 742 739 722 707 704 676 673 676 678 681 683 688 692 696 701 705 709 713 717 722 725 727 728 729 731 732 733 732 731 729 729 728 727 727
672 679 669 661 663 670 686 689 697 705 716 736 735 717 681 671 671 674 675 677 680 684 688 694 699 703 707 712 717 721 724 726 728 729 731 732 733 733 732 730 730 729 728 728
690 681 681 666 648 647 661 678 681 694 716 706 715 703 659 661 661 660 668 674 679 682 687 693 698 703 708 712 716 720 723 725 727 729 730 732 733 733 733 732 732 731 730 730
700 687 683 680 662 653 656 656 661 680 697 707 708 691 657 659 660 660 667 672 677 682 689 694 698 703 707 711 715 718 722 724 727 728 730 732 733 734 734 733 733 733 732 733
702 700 672 662 650 646 657 655 663 671 688 685 684 673 662 661 661 664 668 672 676 679 686 690 697 701 704 709 713 717 721 723 726 728 730 732 733 735 736 736 736 736 736 736
710 710 684 659 645 644 643 650 653 661 661 678 665 671 661 659 660 658 661 672 677 681 685 687 693 699 702 707 712 715 719 722 725 728 730 732 734 735 737 738 738 738 739 740
712 710 692 667 648 643 651 645 643 646 651 657 662 663 643 641 645 658 662 666 672 675 678 683 689 695 699 703 708 713 717 720 724 727 730 733 735 736 738 740 741 742 742 743
710 710 698 681 650 652 666 638 643 639 636 639 661 648 643 646 647 652 659 659 661 666 671 677 682 687 694 699 703 709 714 718 722 726 730 732 735 737 739 741 743 744 744 744
703 708 708 701 665 677 619 614 622 635 628 628 630 631 630 632 632 636 640 647 656 661 665 670 675 683 688 695 701 706 711 716 721 725 729 732 735 738 739 742 744 745 746 747
694 703 708 703 680 639 619 612 618 633 633 620 623 623 623 624 634 640 637 638 640 647 652 660 668 676 684 690 697 703 709 714 719 723 727 731 734 738 741 743 745 747 748 749
675 691 697 690 687 660 636 625 602 609 635 614 617 624 624 629 647 646 634 636 640 645 650 656 665 673 680 687 694 700 706 712 717 720 724 729 733 737 741 744 746 749 750 751
692 697 700 691 689 655 653 639 618 633 639 631 620 613 620 622 616 615 619 627 630 635 643 654 660 667 673 682 691 697 702 708 712 718 723 727 732 735 739 744 747 750 752 754
698 691 692 687 678 660 649 634 646 659 641 633 623 611 609 602 606 612 612 619 626 635 643 650 658 663 670 677 686 694 697 702 709 716 722 726 730 734 738 742 746 750 752 755
698 702 696 689 669 666 664 665 662 656 649 635 626 616 609 601 605 606 610 615 619 626 632 641 650 660 667 673 680 688 693 700 707 713 719 724 729 733 737 741 744 748 751 754
697 696 693 690 663 665 664 661 657 652 646 634 621 614 604 598 597 601 602 609 616 622 631 637 647 656 663 669 675 680 689 696 703 709 715 721 726 731 735 739 743 746 749 753
701 697 693 686 673 665 658 658 655 647 639 627 616 608 598 591 594 593 598 603 608 615 624 633 639 647 654 663 671 678 685 693 699 706 711 717 723 728 732 737 740 744 747 749
694 695 688 687 678 683 670 658 652 645 634 622 616 606 599 591 588 595 591 594 602 611 619 627 633 642 649 658 666 673 680 688 695 702 707 712 719 725 729 733 738 742 745 748
Wind_Speed
9 8 19 18 21 17 8 8 9 8 4 7 8 9 15 14 7 14 15 10 12 8 4 16 26 34 36 32 28 22 18 14 9 4 3 2 4 8 11 11 10 9 8 8
7 30 19 16 16 16 9 9 17 18 8 7 9 14 15 12 12 8 13 13 6 5 5 9 21 26 31 32 26 20 16 12 7 3 1 2 6 7 9 9 8 8 9 9
28 20 16 20 16 18 18 17 15 19 2 6 8 14 12 16 5 9 9 8 6 11 11 11 14 22 29 29 23 20 15 11 7 3 1 2 6 6 5 2 3 7 5 7
18 21 22 17 24 17 19 16 21 18 5 6 4 5 5 8 10 7 10 7 10 7 8 13 13 13 25 25 21 18 16 12 8 4 2 4 4 4 4 3 4 6 3 4
12 18 24 21 21 22 18 11 9 10 6 4 9 3 7 4 8 11 11 7 6 8 12 13 13 18 24 24 22 19 15 12 8 4 1 3 4 3 4 4 4 4 3 4
10 9 25 25 14 19 7 4 2 4 4 12 19 7 5 7 8 7 4 1 7 10 11 9 14 22 22 22 20 19 14 13 9 5 2 3 4 3 4 4 5 5 2 6
6 12 3 7 15 6 7 7 2 3 5 7 7 6 15 7 9 9 9 7 8 9 13 15 15 10 19 22 23 19 15 12 10 7 2 2 1 3 4 7 7 4 1 6
14 11 22 12 9 12 14 14 6 6 4 4 7 7 7 8 10 8 9 8 10 11 11 13 13 12 18 24 24 20 16 13 11 7 3 2 2 3 5 6 5 5 4 7
12 14 2 16 6 14 9 16 12 3 2 2 4 7 9 2 5 6 7 10 10 12 13 14 11 15 20 25 25 21 17 13 12 8 4 2 1 3 5 6 3 3 3 4
3 5 8 19 19 18 10 10 8 5 5 4 5 4 6 4 5 3 7 8 9 8 10 12 10 14 22 28 26 21 18 15 13 8 5 2 1 3 3 4 3 4 4 5
4 1 3 6 16 21 8 8 5 7 6 5 2 6 7 9 9 11 9 9 12 13 13 13 10 16 24 27 24 21 18 15 14 9 6 4 3 3 4 5 3 4 4 5
5 5 5 13 2 20 13 12 10 9 6 6 3 7 5 9 10 14 11 10 8 9 12 11 10 14 18 24 22 20 20 18 14 9 8 7 4 4 5 6 4 4 6 7
8 5 5 6 2 4 23 19 17 4 3 7 9 8 3 4 6 7 11 10 9 11 9 8 8 10 14 21 22 22 22 21 15 12 11 9 5 6 6 7 5 6 7 10
7 4 10 12 3 5 6 21 11 16 12 10 9 3 3 5 9 6 7 7 11 12 14 13 10 10 15 20 23 24 23 22 18 14 12 9 5 6 6 6 6 6 8 10
3 4 6 16 21 10 3 11 21 19 14 15 12 9 9 10 10 14 11 9 11 12 13 14 12 11 13 18 22 25 24 23 20 16 13 9 9 9 8 9 10 9 10 12
4 4 7 7 14 21 16 4 22 21 16 11 8 8 8 9 6 7 13 14 15 15 16 15 13 12 13 20 23 26 25 25 22 19 16 12 10 7 8 9 9 10 10 12
6 3 10 6 8 11 15 27 9 15 17 18 10 9 8 5 13 14 11 15 18 17 17 16 16 15 19 22 26 27 27 27 26 22 18 15 12 9 11 11 9 11 11 11
7 2 2 5 3 7 16 13 16 10 12 11 4 10 13 14 17 16 16 20 16 15 16 16 14 15 23 25 27 31 28 29 30 24 21 18 14 13 13 14 12 10 9 10
18 5 2 3 4 6 5 3 13 9 11 10 12 8 12 8 7 2 10 17 21 21 18 16 23 25 24 29 30 32 29 29 28 27 24 21 18 18 15 14 13 10 12 13
15 12 6 2 4 6 5 13 1 6 13 8 9 10 9 11 10 6 12 14 13 12 13 16 22 23 27 27 32 30 27 27 26 29 28 25 22 21 17 16 16 12 15 16
4 3 9 5 4 6 17 21 11 13 3 14 7 10 8 11 9 11 16 16 17 17 15 23 25 25 29 32 32 26 27 27 35 33 29 27 26 23 21 21 19 16 16 17
2 3 4 4 4 5 21 7 6 9 13 11 11 7 11 12 9 7 16 17 16 13 12 22 21 23 28 35 33 24 27 34 33 33 31 29 28 25 24 24 23 20 19 18
2 1 3 4 2 2 6 3 7 9 12 11 12 13 8 11 10 10 11 14 16 17 17 26 24 21 26 33 34 28 29 33 35 34 33 31 30 28 27 27 26 24 22 21
3 4 3 6 3 9 14 10 13 13 12 15 12 12 8 9 9 12 13 13 14 14 13 22 22 19 21 30 33 36 33 37 36 33 34 33 32 31 29 29 28 27 27 24
3 4 2 5 11 12 3 14 16 19 17 16 15 11 9 7 7 13 13 15 15 16 17 24 22 22 26 31 31 31 36 36 34 34 33 32 33 34 32 31 31 30 30 29
3 4 1 3 6 5 11 15 21 17 20 20 18 15 13 9 6 2 13 15 14 14 19 19 24 24 26 30 30 34 38 40 34 29 28 31 29 31 30 30 29 30 29 29
Wind_Direction
174 196 210 192 207 216 222 223 248 276 243 250 245 262 275 279 290 270 268 252 238 233 184 164 163 165 167 167 166 162 161 160 170 177 238 279 309 301 291 274 276 288 279 252
170 226 201 206 207 216 223 242 258 280 274 228 271 262 268 283 276 237 249 252 169 162 169 150 148 154 159 163 163 159 159 162 161 167 249 300 317 314 304 284 273 291 282 246
202 229 204 203 206 212 223 228 246 246 354 292 302 287 280 283 288 262 251 237 189 194 168 153 152 150 160 162 160 160 160 155 145 149 102 336 330 332 321 314 296 316 284 242
229 227 191 203 215 198 222 216 239 256 277 255 131 287 301 287 300 292 274 252 235 162 145 154 148 149 160 160 158 158 156 156 153 137 94 16 13 357 312 323 324 333 315 221
210 186 212 213 210 200 224 212 225 245 250 292 256 274 269 242 281 271 263 274 225 152 149 153 148 154 160 159 160 159 158 166 169 155 119 44 46 7 329 326 317 314 283 199
216 205 201 217 200 202 169 153 260 272 268 261 264 189 213 232 223 252 241 48 137 141 128 123 138 155 159 160 160 160 163 173 178 180 126 65 64 25 350 12 348 339 261 196
178 225 211 171 205 163 172 108 268 281 215 226 239 191 246 248 236 230 246 180 145 131 141 148 158 152 154 162 163 166 171 175 186 181 126 79 37 0 359 12 355 9 166 188
201 211 211 173 182 187 199 179 166 205 197 189 170 234 243 224 266 233 243 141 142 150 151 159 156 157 161 167 170 173 178 177 184 180 157 82 16 322 341 3 5 35 103 149
199 231 175 186 168 162 193 207 184 10 313 72 219 285 329 314 244 200 149 135 159 161 155 156 161 160 166 172 176 180 181 182 186 186 174 137 358 353 344 6 35 40 108 162
268 207 214 206 193 198 168 151 177 201 211 207 266 255 216 224 261 148 148 164 155 143 144 158 165 164 173 179 181 185 184 188 188 183 181 182 322 12 36 17 59 59 75 122
204 151 278 160 204 188 175 197 162 156 216 170 184 256 219 206 191 190 195 180 164 166 161 169 169 170 178 183 184 187 186 188 186 187 183 173 165 88 67 35 50 82 71 122
288 227 216 225 246 194 199 196 205 185 203 227 162 259 227 213 202 182 182 175 173 158 162 167 163 158 172 181 184 186 186 189 188 188 175 160 153 118 83 56 69 99 86 113
331 281 259 338 346 181 198 202 206 172 96 193 189 251 175 171 165 203 158 170 163 153 151 150 145 165 176 181 183 181 184 187 177 175 167 160 155 124 97 65 99 93 101 120
338 282 247 217 224 145 186 199 172 189 218 219 222 185 194 185 156 165 169 170 159 164 167 164 162 176 178 182 180 180 184 185 177 179 168 167 157 133 118 82 107 103 90 117
36 276 308 275 258 278 202 191 198 205 200 199 221 193 209 194 185 183 183 141 150 163 171 176 172 177 177 179 180 182 184 185 181 178 169 166 140 134 125 107 104 114 101 113
3 281 324 267 244 241 248 247 202 213 213 225 175 218 206 202 128 123 177 167 174 180 180 180 177 174 180 183 182 184 185 187 184 180 172 164 151 146 140 135 118 117 126 130
297 333 351 280 243 242 257 241 222 211 203 203 183 215 157 145 169 177 177 183 183 182 180 181 183 180 184 186 183 184 186 187 185 182 175 171 162 160 148 140 138 118 113 128
240 115 237 278 273 191 246 224 219 210 215 212 147 178 175 174 192 186 188 184 184 183 184 188 185 181 186 185 184 187 186 186 187 184 178 176 167 166 154 153 143 131 120 120
219 166 258 253 261 279 245 230 192 170 247 212 206 201 193 168 125 241 195 189 186 186 187 186 183 182 175 181 184 185 181 182 184 186 183 179 172 163 162 160 155 142 135 125
223 193 190 216 252 220 33 330 244 120 236 211 182 192 152 139 166 231 184 194 197 194 177 177 179 172 172 181 181 174 174 174 182 189 187 184 177 171 165 167 162 150 145 132
115 118 219 263 289 288 345 317 304 177 248 318 265 184 158 175 186 199 181 189 186 178 172 173 167 171 179 179 176 173 173 181 191 193 190 187 183 178 173 168 166 156 155 147
28 325 184 196 239 266 353 16 46 310 312 307 313 247 182 191 186 163 175 183 176 165 146 164 171 177 173 177 175 175 183 190 188 191 191 191 187 184 177 174 173 167 163 161
223 170 316 279 309 9 338 335 305 315 316 312 312 303 272 201 177 177 178 176 181 175 172 171 171 166 171 176 179 181 189 185 185 187 192 194 192 191 187 180 178 177 174 170
211 246 228 314 29 310 316 323 335 323 323 315 307 292 272 213 177 180 170 175 178 172 169 166 160 166 171 179 184 192 182 186 184 184 191 195 194 196 195 193 188 184 184 182
215 231 284 271 287 313 1 325 326 320 321 335 337 323 327 222 203 176 176 176 179 177 163 167 171 174 178 178 185 184 186 181 181 186 190 193 194 198 199 202 200 199 198 197
191 207 178 261 313 276 277 300 314 322 324 337 338 336 356 12 163 265 175 177 171 171 169 172 174 175 174 178 180 183 188 185 182 183 185 189 189 193 198 199 204 210 213 210